Decatur, IL

11:39 PM CDT on August 16, 2017 (GMT -0500)
Decatur

Weather History for KDEC - December, 2013

Change the Weather History Date:

Saturday, December 14, 2013

  Actual Average Record
Temperature  
Mean Temperature 29 °F 31 °F  
Max Temperature 34 °F 39 °F 65 °F (2015)
Min Temperature 24 °F 23 °F 0 °F (2000)
Degree Days  
Heating Degree Days 36 34  
Month to date heating degree days 507 447  
Since 1 July heating degree days 1655 1528  
Cooling Degree Days 0 0  
Month to date cooling degree days 0 0  
Year to date cooling degree days 1079 1048  
Moisture  
Dew Point 29 °F    
Average Humidity 87    
Maximum Humidity 96    
Minimum Humidity 78    
Precipitation  
Precipitation 0.27 in 0.07 in 0.48 in (2015)
Month to date precipitation 0.27 1.12  
Year to date precipitation 32.29 37.03  
Sea Level Pressure  
Sea Level Pressure 29.94 in    
Wind  
Wind Speed 13 mph (NNE)    
Max Wind Speed 22 mph    
Max Gust Speed 28 mph    
Visibility 4 miles    
Events Fog , Rain , Snow    
T = Trace of Precipitation, MM = Missing Value Source: NWS Daily Summary

Daily Weather History Graph

Daily Weather History Graph

Search for Another Location

Airport or City:

Trip Planner

Search our weather history database for the weather conditions in past years. The results will help you decide how hot, cold, wet, or windy it might be!

Date:

Astronomy

Dec. 14, 2013 Rise Set
Actual Time 7:09 AM CST 4:31 PM CST
Civil Twilight 6:38 AM CST 5:01 PM CST
Nautical Twilight 6:04 AM CST 5:35 PM CST
Astronomical Twilight 5:31 AM CST 6:08 PM CST
Moon 2:53 PM CST (12/14) 4:29 AM CST (12/14)
Length of Visible Light 10h 23m
Length of Day
9h 22m
Waxing Gibbous, 94% of the Moon is Illuminated
Dec 14
Waxing Gibbous
Dec 17
Full
Dec 25
Last Quarter
Jan 1
New
Jan 7
First Quarter

Hourly Weather History & Observations

Time (CST) Temp. Windchill Dew Point Humidity Pressure Visibility Wind Dir Wind Speed Gust Speed Precip Events Conditions
12:11 AM 33.8 °F 29.6 °F 30.2 °F 87% 30.02 in 1.5 mi East 4.6 mph - 0.00 in Snow Light Snow
12:54 AM 33.1 °F 27.7 °F 30.9 °F 92% 30.01 in 1.0 mi East 5.8 mph - 0.00 in Snow Light Snow
1:22 AM 33.8 °F 28.6 °F 30.2 °F 87% 29.99 in 1.2 mi East 5.8 mph - 0.00 in Snow Light Snow
1:54 AM 33.1 °F 25.5 °F 30.9 °F 92% 29.99 in 1.5 mi East 9.2 mph - 0.00 in Snow Light Snow
2:54 AM 33.1 °F 24.9 °F 30.9 °F 92% 29.99 in 1.5 mi ESE 10.4 mph - 0.00 in Snow Light Snow
3:54 AM 33.1 °F 24.4 °F 30.9 °F 92% 29.95 in 2.0 mi East 11.5 mph - 0.00 in Snow Light Snow
4:05 AM 33.8 °F 25.8 °F 30.2 °F 87% 29.92 in 1.5 mi East 10.4 mph - 0.00 in Snow Light Snow
4:54 AM 33.1 °F 24.4 °F 30.9 °F 92% 29.91 in 1.2 mi East 11.5 mph - 0.00 in Snow Light Snow
5:54 AM 33.1 °F 24.9 °F 30.9 °F 92% 29.91 in 0.8 mi East 10.4 mph - 0.00 in Snow Light Snow
6:16 AM 33.8 °F 25.3 °F 30.2 °F 87% 29.88 in 1.0 mi ENE 11.5 mph - 0.00 in Snow Light Snow
6:54 AM 33.1 °F 24.9 °F 30.9 °F 92% 29.90 in 1.2 mi ENE 10.4 mph - 0.00 in Snow Light Snow
7:27 AM 33.8 °F 25.3 °F 30.2 °F 87% 29.88 in 0.5 mi East 11.5 mph - 0.00 in Fog , Snow Snow
7:54 AM 33.1 °F 24.9 °F 30.9 °F 92% 29.90 in 0.8 mi ENE 10.4 mph - 0.00 in Snow Light Snow
8:41 AM 33.8 °F 26.4 °F 32.0 °F 93% 29.88 in 1.0 mi ENE 9.2 mph - 0.00 in Snow Light Snow
8:54 AM 33.1 °F 26.1 °F 32.0 °F 96% 29.90 in 1.0 mi NE 8.1 mph - 0.00 in Snow Light Snow
9:16 AM 33.8 °F 27.7 °F 32.0 °F 93% 29.88 in 0.8 mi ENE 6.9 mph - 0.00 in Snow Light Snow
9:27 AM 33.8 °F 28.6 °F 32.0 °F 93% 29.88 in 0.8 mi NE 5.8 mph - 0.00 in Snow Light Snow
9:36 AM 33.8 °F 28.6 °F 32.0 °F 93% 29.88 in 1.0 mi NE 5.8 mph - 0.00 in Snow Light Snow
9:54 AM 33.1 °F 26.9 °F 32.0 °F 96% 29.90 in 1.2 mi NNE 6.9 mph - 0.00 in Snow Light Snow
10:54 AM 34.0 °F 28.8 °F 32.0 °F 92% 29.88 in 2.0 mi North 5.8 mph - 0.03 in Snow Light Snow
11:09 AM 33.8 °F 27.0 °F 32.0 °F 93% 29.86 in 1.8 mi North 8.1 mph - 0.02 in Snow Light Snow
11:54 AM 34.0 °F 25.5 °F 30.9 °F 89% 29.88 in 2.5 mi North 11.5 mph - 0.08 in Snow Light Snow
12:44 PM 33.8 °F 22.8 °F 30.2 °F 87% 29.84 in 2.5 mi North 18.4 mph - 0.07 in Rain Light Freezing Rain
12:54 PM 33.1 °F 21.9 °F 30.0 °F 89% 29.87 in 3.0 mi NNW 18.4 mph - 0.08 in Rain Light Freezing Rain
1:12 PM 32.0 °F 21.6 °F 30.2 °F 93% 29.85 in 3.0 mi NNW 15.0 mph 24.2 mph 0.02 in   Overcast
1:54 PM 32.0 °F 20.5 °F 28.0 °F 85% 29.87 in 3.0 mi North 18.4 mph - 0.05 in   Overcast
2:54 PM 30.9 °F 19.4 °F 28.0 °F 89% 29.90 in 4.0 mi North 17.3 mph - 0.02 in   Overcast
3:54 PM 32.0 °F 23.0 °F 28.0 °F 85% 29.94 in 2.5 mi NNW 11.5 mph - 0.01 in   Overcast
4:05 PM 32.0 °F 21.2 °F 28.4 °F 87% 29.92 in 4.0 mi NW 16.1 mph - N/A   Overcast
4:54 PM 30.9 °F 18.4 °F 27.0 °F 85% 29.97 in 8.0 mi NW 20.7 mph 26.5 mph N/A   Overcast
5:54 PM 30.0 °F 17.5 °F 26.1 °F 85% 30.00 in 7.0 mi NNW 19.6 mph - N/A   Overcast
6:44 PM 30.2 °F 19.8 °F 24.8 °F 80% 29.99 in 10.0 mi NW 13.8 mph - N/A   Overcast
6:54 PM 30.0 °F 18.7 °F 25.0 °F 82% 30.02 in 10.0 mi NW 16.1 mph 21.9 mph N/A   Overcast
7:54 PM 28.0 °F 15.7 °F 24.1 °F 85% 30.04 in 9.0 mi NW 17.3 mph - N/A   Overcast
8:54 PM 27.0 °F 15.6 °F 21.9 °F 81% 30.07 in 10.0 mi NW 13.8 mph 23.0 mph N/A   Overcast
9:54 PM 26.1 °F 15.0 °F 21.0 °F 81% 30.08 in 10.0 mi NW 12.7 mph - N/A   Overcast
10:54 PM 25.0 °F 14.2 °F 19.9 °F 81% 30.09 in 10.0 mi NW 11.5 mph - N/A   Overcast
11:54 PM 24.1 °F 13.7 °F 19.9 °F 84% 30.09 in 9.0 mi NW 10.4 mph - N/A   Overcast